"Pseudo-MPEC" for ZTF02rv

Created 2019 Feb 15 22:18:15 UT using Find_Orb

Click here for an explanation of pseudo-MPECs

 
 Astrometry: 
     ZTF02rv  C2019 02 09.25254009 25 02.18 +23 31 20.3    ~2A23 19.11RUNEOCPI41
     ZTF02rv  C2019 02 09.25288709 25 00.57 +23 31 04.7    ~2A23 19.11RUNEOCPI41
     ZTF02rv  C2019 02 09.26405709 24 11.73 +23 22 35.2    ~29LX 19.08RUNEOCPI41
     ZTF02rv  C2019 02 09.26440309 24 10.10 +23 22 18.7    ~29LX 19.08RUNEOCPI41
     ZTF02rv  C2019 02 09.26982409 23 46.33 +23 18 06.7    ~29LX 19.19RUNEOCPI41
     ZTF02rv  C2019 02 09.27017109 23 44.80 +23 17 50.7    ~29LX 19.19RUNEOCPI41
     ZTF02rv  C2019 02 09.33552109 18 52.83 +22 25 25.4    ~2A23 18.97RUNEOCPI41
     ZTF02rv  C2019 02 09.33586809 18 51.30 +22 25 08.1    ~2A23 18.97RUNEOCPI41

Station data:
(I41) Palomar Mountain--ZTF  (N33.357340 W116.859780)  US/California. 1.2-m
   f/2.44 Oschin Schmidt + CCD.

Orbital elements:  ZTF02rv
   Perigee 2019 Feb 10.330309 +/- 0.225 TT =  7:55:38 (JD 2458524.830309)
Epoch 2019 Feb  9.0 TT = JDT 2458523.5                        AutoNEOCP
q435981.496 +/- 33434               (J2000 equator)
H   31.6  G 0.15                    Peri.  169.84402 +/- 5.3
                                    Node   299.81540 +/- 0.13
e   2.4983171 +/- 1.11              Incl.  129.37400 +/- 1.0
From 8 observations 2019 Feb. 9 (2.0 hr); mean residual 0".62
Residuals in arcseconds: 
190209 I41  .80+  .41-    190209 I41  1.2-  .74+    190209 I41  .18-  .00     
190209 I41  .54-  .24-    190209 I41  .30+  .75-    190209 I41  .18+  .01+    
190209 I41  .31+  1.3+    190209 I41  .32+  .66-    

Ephemerides (geocentric):
Date (UTC) HH   RA              Dec         delta   r     elong  mag " sig PA
---- -- -- --  -------------   -----------  ------ ------ -----  --- ---- ---
2019 02 15 22  04 48 54.200   -42 17 28.16  827991 .98788  91.1 23.4 7183  85
2019 02 15 23  04 47 50.145   -42 24 47.24  832231 .98786  90.9 23.4 7119  86
2019 02 16 00  04 46 46.492   -42 31 59.74  836476 .98785  90.6 23.5 7055  86
2019 02 16 01  04 45 43.237   -42 39 05.79  840727 .98783  90.4 23.5 6992  86
2019 02 16 02  04 44 40.379   -42 46 05.47  844982 .98782  90.1 23.5 6929  87
2019 02 16 03  04 43 37.915   -42 52 58.92  849243 .98780  89.9 23.5 6866  87
2019 02 16 04  04 42 35.841   -42 59 46.22  853508 .98779  89.7 23.5 6803  88
2019 02 16 05  04 41 34.156   -43 06 27.47  857779 .98777  89.5 23.6 6740  88
2019 02 16 06  04 40 32.857   -43 13 02.79  862053 .98776  89.2 23.6 6678  89
2019 02 16 07  04 39 31.942   -43 19 32.27  866333 .98774  89.0 23.6 6616  89
2019 02 16 08  04 38 31.407   -43 25 56.01  870616 .98773  88.8 23.6 6554  90
2019 02 16 09  04 37 31.250   -43 32 14.09  874904 .98771  88.6 23.6 6493  90
2019 02 16 10  04 36 31.468   -43 38 26.63  879197 .98770  88.3 23.7 6432  91
2019 02 16 11  04 35 32.059   -43 44 33.69  883493 .98768  88.1 23.7 6371  91
2019 02 16 12  04 34 33.020   -43 50 35.39  887793 .98767  87.9 23.7 6310  92
2019 02 16 13  04 33 34.349   -43 56 31.81  892097 .98765  87.7 23.7 6250  92
2019 02 16 14  04 32 36.043   -44 02 23.02  896405 .98764  87.5 23.7 6190  93
2019 02 16 15  04 31 38.099   -44 08 09.13  900717 .98762  87.3 23.8 6131  93
2019 02 16 16  04 30 40.515   -44 13 50.21  905032 .98761  87.1 23.8 6072  94
2019 02 16 17  04 29 43.288   -44 19 26.34  909351 .98759  86.8 23.8 6013  94
2019 02 16 18  04 28 46.416   -44 24 57.61  913674 .98758  86.6 23.8 5954  95
2019 02 16 19  04 27 49.896   -44 30 24.09  917999 .98756  86.4 23.8 5896  95
2019 02 16 20  04 26 53.726   -44 35 45.87  922328 .98755  86.2 23.9 5839  96
2019 02 16 21  04 25 57.903   -44 41 03.02  926661 .98753  86.0 23.9 5781  96
2019 02 16 22  04 25 02.424   -44 46 15.61  930996 .98752  85.8 23.9 5725  97
2019 02 16 23  04 24 07.287   -44 51 23.72  935335 .98750  85.6 23.9 5668  97
2019 02 17 00  04 23 12.489   -44 56 27.42  939676 .98749  85.5 23.9 5612  98
2019 02 17 01  04 22 18.029   -45 01 26.79  944021 .98747  85.3 23.9 5556  98
2019 02 17 02  04 21 23.903   -45 06 21.88  948368 .98746  85.1 24.0 5501  99
2019 02 17 03  04 20 30.109   -45 11 12.78  952718 .98744  84.9 24.0 5447 100
2019 02 17 04  04 19 36.645   -45 15 59.55  957071 .98743  84.7 24.0 5392 100
2019 02 17 05  04 18 43.508   -45 20 42.24  961426 .98741  84.5 24.0 5338 101
2019 02 17 06  04 17 50.695   -45 25 20.94  965784 .98740  84.3 24.0 5285 101
2019 02 17 07  04 16 58.205   -45 29 55.70  970145 .98738  84.1 24.1 5232 102
2019 02 17 08  04 16 06.034   -45 34 26.58  974508 .98737  84.0 24.1 5180 102
2019 02 17 09  04 15 14.181   -45 38 53.65  978874 .98735  83.8 24.1 5128 103
2019 02 17 10  04 14 22.642   -45 43 16.97  983241 .98734  83.6 24.1 5076 104
2019 02 17 11  04 13 31.417   -45 47 36.59  987612 .98732  83.4 24.1 5025 104
2019 02 17 12  04 12 40.501   -45 51 52.58  991984 .98731  83.2 24.1 4975 105
2019 02 17 13  04 11 49.893   -45 56 04.98  996359 .98729  83.1 24.2 4925 106
2019 02 17 14  04 10 59.591   -46 00 13.87  .00669 .98728  82.9 24.2 4876 106
2019 02 17 15  04 10 09.593   -46 04 19.28  .00672 .98726  82.7 24.2 4827 107
2019 02 17 16  04 09 19.895   -46 08 21.28  .00675 .98725  82.6 24.2 4779 108
2019 02 17 17  04 08 30.495   -46 12 19.92  .00678 .98723  82.4 24.2 4731 108
2019 02 17 18  04 07 41.392   -46 16 15.24  .00681 .98722  82.2 24.2 4684 109
2019 02 17 19  04 06 52.583   -46 20 07.31  .00684 .98720  82.1 24.3 4637 110
2019 02 17 20  04 06 04.066   -46 23 56.17  .00687 .98719  81.9 24.3 4591 110
2019 02 17 21  04 05 15.838   -46 27 41.88  .00689 .98717  81.7 24.3 4546 111